{"data":{"norad_id":68957,"intl_designator":"2026-099G","name":"STARLINK-37047","alt_names":[],"object_type":"PAYLOAD","status":"ACTIVE","operator":null,"country":"US","launch_date":"2026-05-01","launch_site_code":"AFETR","launch_vehicle":null,"mission":null,"orbit_class":"UNKNOWN","rcs_meters":null,"size_class":null,"mass_kg":null,"dimensions":null,"purposes":["comms"],"wikipedia_slug":null,"has_3d_model":false,"image_url":null,"decayed_at":null,"tle_current":{"epoch":"2026-05-25T04:00:03.998880Z","epoch_age_seconds":56774,"freshness":"FRESH","line1":"1 68957U 26099G   26145.16671295  .00082983  00000+0  14879-2 0  9996","line2":"2 68957  53.1588 270.8429 0001360  53.0404 220.5650 15.49240067  5019","mean_motion":15.49240067,"eccentricity":0.000136,"inclination_deg":53.1588,"raan_deg":270.8429,"arg_perigee_deg":53.0404,"mean_anomaly_deg":220.565,"bstar":0.0014879,"rev_number":501,"period_min":92.948796682522,"perigee_km":418.02349418068,"apogee_km":419.87230127287,"semimajor_km":6797.0848977268,"source":"CELESTRAK","updated_at":"2026-05-25T13:38:22.072991Z"}}}